Location: Betpouey
(42.8833°N, 0.0333°E)
Time: 08:11:12
(UTC+00:00)

Cosmos 1933 Rocket - Pass Details

Date: 01 December 2020
Orbit: 606 x 631 km, 82.5° (Epoch: 17 January)

Event Time Altitude Azimuth Distance (km) Brightness Sun altitude
Rises 17:37:14 0° 357° (N) 2,934 6.9 -12.7°
Reaches altitude 10° 17:39:33 10° 2° (N) 2,020 6.0 -13.1°
Maximum altitude 17:43:54 49° 78° (ENE) 812 3.7 -13.8°
Drops below altitude 10° 17:48:13 10° 154° (SSE) 1,997 6.1 -14.6°
Sets 17:50:29 0° 160° (SSE) 2,896 7.0 -15.0°
